Volver al catálogo

FENGYUN 1C DEB

ActivoPO
NORAD 31384·DEBRIS·🇨🇳 China

Lanzado May 10, 1999 desde Taiyuan Satellite Launch Center

Loading…

Próximos Pases (próximas 24 horas)

TLE

ActualizadoSource: Space-Track

Época: Sep 14, 2026, 08:25 UTC

1 31384U 99025BSQ 26257.35088002  .00004427  00000-0  17570-2 0  9991
2 31384  98.4767 203.7155 0432115   1.5513 148.8958 13.88506242968461

Sigue FENGYUN 1C DEB en tiempo real con AllMySat

Download on the App Store